Погода в Мазе

Россия / Вологодская область     59°19′31″N   36°43′26″E
темп.,
°C
ветер,
м/с
пор.,
м/с
влажн.,
%
обл.,
%
осадки,
мм/ч
давл.,
гПа
погр.,
м
16 апреля, пт
пт1600:00+2всв4128119 0.0 1028402
03:00+1св4128168 0.0 1029382
06:00+1всв5138053 0.0 1029401
09:00+5всв611625 0.0 1030602
12:00+9всв684623 0.0 1030953
15:00+11всв68415 0.0 10291181
18:00+10всв594945 0.0 1029933
21:00+4св3117238 0.0 1031236
17 апреля, сб
сб1700:00+3всв311775 0.0 1031258
03:00+2всв3118017 0.0 1032241
06:00+1всв3118246 0.0 1032240
09:00+7в58585 0.0 1032555
12:00+10в56445 0.0 10321137
15:00+12всв46400 0.0 10311410
18:00+11всв46480 0.0 1030723
21:00+6св36720 0.0 103191
18 апреля, вс
вс1800:00+4св37770 0.0 1031115
03:00+2св37813 0.0 1031120
06:00+2св388177 0.0 1031179
09:00+7всв4761100 0.0 1031438
12:00+10всв4651100 0.0 10311044
15:00+11всв5648100 0.0 10301350
18:00+9всв4754100 0.0 1030724
21:00+6св387488 0.0 1031187
19 апреля, пн
пн1900:00+4всв3884100 0.0 1032331
03:00+3всв388693 0.0 1032269
06:00+1всв398527 0.0 1033273
09:00+6в47565 0.0 1033692
12:00+8в56395 0.0 10321400
15:00+10вюв46354 0.0 10311684
18:00+9вюв45414 0.0 10311677
21:00+4в35610 0.0 103281
20 апреля, вт
вт2000:00+2в39670 0.0 1032176
03:000в38750 0.0 1032159
06:000в3107132 0.0 1032271
09:00+5вюв59434 0.0 10301015
12:00+7вюв6833100 0.0 10291422
15:00+8вюв6935100 0.0 10261631
18:00+7вюв51043100 0.0 10241506
21:00+5в41153100 0.0 1022400